Volver al catálogo

SL-19 R/B

ActivoPO
NORAD 29269·ROCKET BODY·🇷🇺 Russia

Lanzado Jul 28, 2006 desde Plesetsk Cosmodrome

Loading…

Próximos Pases (próximas 24 horas)

TLE

ActualizadoSource: Space-Track

Época: Sep 14, 2026, 00:13 UTC

1 29269U 06031B   26257.00950943  .00001477  00000-0  96809-4 0  9995
2 29269  98.2861 256.4935 0104495 211.3327 148.1644 15.05199891 97361

Sigue SL-19 R/B en tiempo real con AllMySat

Download on the App Store